sat.trackr.live / text

‹ back to catalog

UNKNOWN

NORAD 82180

UNKNOWN UNKNOWN UNKNOWN

§ Identity

Operator
Country
Launch date
Launch site
Launch vehicle
Mass (kg)
RCS (m²)

External: N2YO · Heavens-Above

§ Orbital elements

Epoch: 2026-09-17T11:56:19.000032Z

Period
98.68 min
Inclination
65.6514°
Eccentricity
0.0271309
Mean motion
14.59334402 rev/d
Perigee alt
503.4 km
Apogee alt
887.2 km
Semi-major
7,073.5 km
B*
1.3706e-3
RAAN
214.5540°
Arg perigee
69.2895°
Mean anomaly
293.7062°
Rev number
64,232

§ Raw data

UNKNOWN1 82180U          26260.49744213  .00010785  00000+0  13706-2 0  99982 82180  65.6514 214.5540 0271309  69.2895 293.7062 14.59334402642321

JSON: /api/v1/satellites/82180 · /tle

For live sub-satellite position, see the globe view (requires WebGL).

§ Visibility from observer

Set your observer location to see the next 7 days of passes ≥ 10°. The values pass through the URL so the page stays shareable.

No JS? Fill the form by hand. The geolocation button needs JavaScript.